AAL3302 KMIA-KTPA

Flight info

Callsign AAL3302
Flight time N/A
Altitude 24000
Route BNGOS4 COREA BLFRG3
Aircraft A319/M-SDE3FGHIRWY/LB1

Departure

Time 2026-05-05 00:18
Airport Miami International Airport (KMIA)

Arrival

Time N/A
Airport Tampa International Airport (KTPA)
Time Latitude Longitude Altitude Speed Heading
2026-05-05 00:00 25.79730 -80.28444 19 ft 0 kts 359°
2026-05-05 00:06 25.79727 -80.28444 19 ft 3 kts 359°
2026-05-05 00:06 25.79700 -80.28443 20 ft 4 kts 355°
2026-05-05 00:07 25.79673 -80.28439 20 ft 4 kts 349°
2026-05-05 00:07 25.79647 -80.28432 22 ft 4 kts 334°
2026-05-05 00:07 25.79629 -80.28416 21 ft 4 kts 279°
2026-05-05 00:07 25.79628 -80.28405 21 ft 1 kts 266°
2026-05-05 00:10 25.79628 -80.28406 20 ft 0 kts 266°
2026-05-05 00:10 25.79627 -80.28413 21 ft 2 kts 266°
2026-05-05 00:10 25.79626 -80.28436 19 ft 5 kts 266°
2026-05-05 00:10 25.79624 -80.28486 19 ft 8 kts 266°
2026-05-05 00:11 25.79615 -80.28547 20 ft 8 kts 255°
2026-05-05 00:11 25.79599 -80.28611 21 ft 9 kts 255°
2026-05-05 00:11 25.79583 -80.28679 20 ft 9 kts 255°
2026-05-05 00:11 25.79567 -80.28752 20 ft 10 kts 266°
2026-05-05 00:12 25.79607 -80.28808 20 ft 10 kts 351°
2026-05-05 00:12 25.79680 -80.28812 21 ft 11 kts 358°
2026-05-05 00:12 25.79762 -80.28816 20 ft 12 kts 358°
2026-05-05 00:12 25.79821 -80.28818 21 ft 13 kts 358°
2026-05-05 00:13 25.79914 -80.28822 23 ft 13 kts 358°
2026-05-05 00:13 25.80006 -80.28837 22 ft 14 kts 322°
2026-05-05 00:13 25.80008 -80.28947 20 ft 15 kts 264°
2026-05-05 00:13 25.80003 -80.29069 21 ft 16 kts 268°
2026-05-05 00:14 25.80000 -80.29189 22 ft 16 kts 268°
2026-05-05 00:14 25.79995 -80.29320 19 ft 18 kts 267°
2026-05-05 00:14 25.79988 -80.29476 14 ft 22 kts 267°
2026-05-05 00:14 25.79980 -80.29648 14 ft 22 kts 267°
2026-05-05 00:15 25.79974 -80.29823 13 ft 23 kts 268°
2026-05-05 00:15 25.79975 -80.29968 11 ft 0 kts 281°
2026-05-05 00:16 25.79976 -80.29972 11 ft 2 kts 281°
2026-05-05 00:16 25.79983 -80.30004 13 ft 7 kts 285°
2026-05-05 00:16 25.80001 -80.30068 14 ft 10 kts 294°
2026-05-05 00:17 25.80060 -80.30103 15 ft 9 kts 21°
2026-05-05 00:17 25.80076 -80.30029 13 ft 12 kts 87°
2026-05-05 00:17 25.80081 -80.29914 12 ft 29 kts 87°
2026-05-05 00:17 25.80108 -80.29380 18 ft 106 kts 87°
2026-05-05 00:18 25.80142 -80.28347 60 ft 159 kts 85°
2026-05-05 00:18 25.80181 -80.27095 661 ft 165 kts 86°
2026-05-05 00:18 25.80216 -80.25811 1411 ft 169 kts 85°
2026-05-05 00:18 25.80288 -80.24417 1914 ft 193 kts 85°
2026-05-05 00:19 25.80372 -80.22838 2463 ft 217 kts 86°
2026-05-05 00:19 25.80454 -80.21072 3043 ft 241 kts 86°
2026-05-05 00:19 25.80536 -80.19150 3801 ft 255 kts 85°
2026-05-05 00:19 25.81033 -80.17233 4608 ft 269 kts 57°
2026-05-05 00:20 25.82418 -80.15829 4911 ft 273 kts 24°
2026-05-05 00:20 25.84246 -80.15314 5001 ft 272 kts
2026-05-05 00:20 25.86136 -80.15263 5015 ft 272 kts 357°
2026-05-05 00:20 25.88022 -80.15361 5017 ft 271 kts 355°
2026-05-05 00:21 25.89873 -80.15745 5016 ft 271 kts 342°
2026-05-05 00:21 25.91634 -80.16490 5018 ft 271 kts 338°
2026-05-05 00:21 25.93413 -80.17184 5021 ft 273 kts 341°
2026-05-05 00:21 25.95225 -80.17824 5019 ft 274 kts 342°
2026-05-05 00:22 25.97014 -80.18601 5604 ft 277 kts 329°
2026-05-05 00:22 25.98552 -80.19868 6699 ft 275 kts 314°
2026-05-05 00:22 25.99712 -80.21552 7690 ft 275 kts 296°
2026-05-05 00:22 26.00475 -80.23508 8688 ft 277 kts 289°
2026-05-05 00:23 26.01191 -80.25498 9694 ft 279 kts 289°
2026-05-05 00:23 26.01919 -80.27531 10390 ft 292 kts 289°
2026-05-05 00:23 26.02714 -80.29759 10749 ft 315 kts 289°
2026-05-05 00:23 26.03525 -80.32016 11386 ft 324 kts 289°
2026-05-05 00:24 26.04370 -80.34354 12198 ft 328 kts 289°
2026-05-05 00:24 26.05228 -80.36716 13025 ft 331 kts 289°
2026-05-05 00:24 26.06089 -80.39097 13825 ft 333 kts 289°
2026-05-05 00:24 26.06945 -80.41473 14521 ft 336 kts 289°
2026-05-05 00:25 26.07814 -80.43890 15246 ft 337 kts 289°
2026-05-05 00:25 26.08688 -80.46320 15978 ft 339 kts 289°
2026-05-05 00:25 26.09566 -80.48756 16707 ft 340 kts 289°
2026-05-05 00:25 26.10448 -80.51206 17425 ft 342 kts 289°
2026-05-05 00:26 26.11331 -80.53663 18140 ft 343 kts 289°
2026-05-05 00:26 26.12220 -80.56138 18782 ft 345 kts 289°